Location: Kra?nica
(53.4833°N, 14.6167°E)
Time: 16:52:10
(UTC+00:00)

Cosmos 724 - Pass Details

Date: 23 May 2024
Orbit: 864 x 930 km, 65.6° (Epoch: 12 June)

Event Time Altitude Azimuth Distance (km) Brightness Sun altitude
Exits shadow 00:12:03 16° 227° (SW) 2,144 5.8 -14.2°
Maximum altitude 00:16:52 80° 315° (NW) 893 4.3 -14.0°
Drops below altitude 10° 00:22:43 10° 42° (NE) 2,522 7.8 -13.7°
Sets 00:25:12 0° 44° (NE) 3,459 8.7 -13.5°
